Вернуться в каталог

COSMOS 1238

АктивенВоенныеPO
NORAD 12138·PAYLOAD·🇷🇺 Russia

Запущен Jan 16, 1981 с Plesetsk Cosmodrome

Loading…

Ближайшие Пролёты (ближайшие 24 часа)

TLE

СвежийSource: Space-Track

Эпоха: Sep 14, 2026, 14:57 UTC

1 12138U 81003A   26257.62325652  .00003161  00000-0  20913-3 0  9999
2 12138  82.9584 147.1281 0635436 167.6730 194.0869 14.13654455282540

Отслеживайте COSMOS 1238 в реальном времени с AllMySat

Download on the App Store